GSAT-6

Last updated on Sept. 28, 2020, 5:45 a.m. UTC

1 40880U 15041A   20271.87392657 -.00000183  00000-0  00000-0 0  9993
2 40880   0.0232 144.4039 0005920  73.4608 186.3724  1.00271566 18703
UTC
Height (km)
Latitude
Longitude
Inclination
Orbital Period
UTC large
Height (km)
Speed (km/s)
/
Latitude / Longitude
Inclination (degrees)
Orbital Period (minutes)
Azimuth
Elevation
Range (km)
Doppler Factor
iOS Compass Heading
iOS Angle

Next 30 passes for location: Hong Kong

Rise time Rise Azimuth (degrees) Set time Set Azimuth (degrees) Duration Max altitude (degrees)

No matching passes for this satellites